F4NFR-13 Weather Reports


time (UTC)temp
C
wind
direction
speed
KPH
gust
KPH
rain 1hr
cm
rain 24hr
cm
rain mn
cm
humidity
%
barometer
mb
20260507214644 8 14 0.0 0.0 0.00 0.00 0.00 89 1018.8
20260507214142 8 180 1.6 1.6 0.00 0.00 0.00 89 1018.8
20260507213639 8 357 0.0 0.0 0.00 0.00 0.00 89 1018.8
20260507212132 8 41 0.0 1.6 0.00 0.00 0.00 88 1018.8
20260507210625 8 0 0.0 0.0 0.00 0.00 0.00 86 1018.8
20260507210122 8 275 1.6 1.6 0.00 0.00 0.00 87 1018.8
20260507205620 8 319 1.6 1.6 0.00 0.00 0.00 87 1018.8
20260507205117 8 24 0.0 0.0 0.00 0.00 0.00 87 1018.8
20260507204112 8 20 0.0 0.0 0.00 0.00 0.00 86 1018.8
20260507203610 8 23 0.0 0.0 0.00 0.00 0.00 86 1018.8
20260507203107 8 18 0.0 0.0 0.00 0.00 0.00 85 1018.8
20260507202103 10 19 0.0 0.0 0.00 0.00 0.00 84 1018.4
20260507201600 10 44 1.6 1.6 0.00 0.00 0.00 84 1018.4
20260507201058 10 28 0.0 0.0 0.00 0.00 0.00 83 1018.4
20260507200556 10 72 1.6 1.6 0.00 0.00 0.00 83 1018.4
20260507200053 10 73 0.0 0.0 0.00 0.00 0.00 82 1018.4
20260507195551 10 38 0.0 0.0 0.00 0.00 0.00 82 1018.4
20260507195049 10 64 0.0 0.0 0.00 0.00 0.00 81 1018.4
20260507194547 10 36 0.0 0.0 0.00 0.00 0.00 81 1018.4
20260507194044 10 18 0.0 0.0 0.00 0.00 0.00 80 1018.1
20260507193542 10 87 0.0 1.6 0.00 0.00 0.00 80 1018.1
20260507193039 10 12 0.0 0.0 0.00 0.00 0.00 79 1018.1
20260507192537 11 85 3.2 4.8 0.00 0.00 0.00 79 1018.1
20260507192034 11 69 1.6 1.6 0.00 0.00 0.00 79 1018.1
20260507191532 11 88 3.2 4.8 0.00 0.00 0.00 79 1018.1
20260507191029 11 61 1.6 1.6 0.00 0.00 0.00 79 1018.1
20260507190527 11 68 1.6 3.2 0.00 0.00 0.00 79 1017.8
20260507190025 11 52 1.6 1.6 0.00 0.00 0.00 79 1017.8
20260507185522 11 70 3.2 3.2 0.00 0.00 0.00 78 1017.8
20260507185020 11 69 3.2 4.8 0.00 0.00 0.00 78 1017.8
20260507184517 12 85 3.2 4.8 0.00 0.00 0.00 78 1017.8
20260507184015 12 83 3.2 3.2 0.00 0.00 0.00 77 1017.8
20260507183513 12 64 1.6 3.2 0.00 0.00 0.00 77 1017.8
20260507183010 12 97 4.8 9.7 0.00 0.00 0.00 76 1017.8
20260507182507 12 85 4.8 9.7 0.00 0.00 0.00 75 1017.8
20260507182005 12 36 4.8 4.8 0.00 0.00 0.00 75 1017.8
20260507181502 12 37 6.4 6.4 0.00 0.00 0.00 75 1017.8
20260507180959 12 76 3.2 6.4 0.00 0.00 0.00 74 1017.8
20260507180457 12 92 3.2 9.7 0.00 0.00 0.00 73 1017.8
20260507175955 12 86 4.8 6.4 0.00 0.00 0.00 73 1017.8
20260507175452 12 66 3.2 4.8 0.00 0.00 0.00 71 1017.8
20260507174950 12 84 4.8 9.7 0.00 0.00 0.00 71 1017.8
20260507174447 12 94 6.4 11.3 0.00 0.00 0.00 71 1017.8
20260507173945 12 77 6.4 11.3 0.00 0.00 0.00 71 1017.8
20260507172940 12 84 6.4 8.0 0.00 0.00 0.00 70 1017.8
20260507172438 12 90 9.7 14.5 0.00 0.00 0.00 69 1017.8
20260507171935 12 94 11.3 14.5 0.00 0.00 0.00 69 1017.8
20260507171432 12 89 6.4 11.3 0.00 0.00 0.00 69 1017.8
20260507170930 12 79 4.8 14.5 0.00 0.00 0.00 69 1017.8
20260507170428 13 42 4.8 9.7 0.00 0.00 0.00 68 1017.8
20260507165925 13 50 6.4 11.3 0.00 0.00 0.00 67 1017.8
20260507165423 13 18 4.8 9.7 0.00 0.00 0.00 65 1017.8
20260507164920 13 68 1.6 4.8 0.00 0.00 0.00 64 1017.8
20260507164418 13 73 4.8 6.4 0.00 0.00 0.00 65 1017.8
20260507163915 13 71 1.6 3.2 0.00 0.00 0.00 67 1017.8
20260507163413 13 26 4.8 4.8 0.00 0.00 0.00 67 1017.8
20260507162910 13 50 6.4 9.7 0.00 0.00 0.00 67 1017.8
20260507162408 13 73 3.2 3.2 0.00 0.00 0.00 65 1017.8
20260507161906 15 82 8.0 9.7 0.00 0.00 0.00 63 1017.8
20260507161404 16 180 3.2 3.2 0.00 0.00 0.00 63 1017.8
20260507160901 15 111 6.4 11.3 0.00 0.00 0.00 62 1017.8
20260507160359 15 11 3.2 4.8 0.00 0.00 0.00 62 1017.8
20260507155354 13 53 6.4 9.7 0.00 0.00 0.00 66 1017.8
20260507154852 13 66 6.4 9.7 0.00 0.00 0.00 65 1017.8
20260507154350 15 81 4.8 4.8 0.00 0.00 0.00 65 1017.8
20260507153847 15 73 4.8 6.4 0.00 0.00 0.00 64 1017.8
20260507153556 15 22 3.2 3.2 0.00 0.00 0.00 64 1017.8
20260507153345 15 22 3.2 3.2 0.00 0.00 0.00 64 1017.8
20260507153147 15 24 4.8 9.7 0.00 0.00 0.00 65 1017.8
20260507152842 15 24 4.8 9.7 0.00 0.00 0.00 65 1017.8
20260507152340 15 109 6.4 8.0 0.00 0.00 0.00 64 1017.8
20260507151837 15 39 6.4 6.4 0.00 0.00 0.00 61 1017.8
20260507151334 15 26 4.8 9.7 0.00 0.00 0.00 63 1017.8
20260507150832 15 88 3.2 6.4 0.00 0.00 0.00 61 1017.8
20260507150330 15 93 3.2 3.2 0.00 0.00 0.00 62 1017.8
20260507145827 15 102 6.4 9.7 0.00 0.00 0.00 65 1017.8
20260507145325 15 1 3.2 6.4 0.00 0.00 0.00 64 1017.8
20260507144822 15 83 3.2 3.2 0.00 0.00 0.00 65 1017.8
20260507144320 15 68 4.8 4.8 0.00 0.00 0.00 63 1017.8
20260507143818 15 44 8.0 11.3 0.00 0.00 0.00 65 1018.1
20260507143316 13 56 3.2 6.4 0.00 0.00 0.00 65 1018.1
20260507142813 13 47 11.3 11.3 0.00 0.00 0.00 64 1018.1
20260507141809 13 23 9.7 11.3 0.00 0.00 0.00 63 1018.1
20260507141306 13 74 8.0 9.7 0.00 0.00 0.00 65 1018.1
20260507140803 13 55 3.2 9.7 0.00 0.00 0.00 64 1018.1
20260507140301 13 50 6.4 9.7 0.00 0.00 0.00 60 1018.1
20260507135758 13 39 6.4 9.7 0.00 0.00 0.00 60 1018.1
20260507135256 13 93 6.4 9.7 0.00 0.00 0.00 61 1018.1
20260507134753 13 52 3.2 6.4 0.00 0.00 0.00 62 1018.4
20260507134251 13 91 9.7 9.7 0.00 0.00 0.00 61 1018.4
20260507133748 13 38 4.8 8.0 0.00 0.00 0.00 60 1018.4
20260507133246 13 75 3.2 4.8 0.00 0.00 0.00 61 1018.4
20260507132743 13 78 6.4 9.7 0.00 0.00 0.00 62 1018.4
20260507132241 13 29 1.6 3.2 0.00 0.00 0.00 61 1018.4
20260507131738 13 35 9.7 11.3 0.00 0.00 0.00 61 1018.1
20260507131236 13 82 6.4 8.0 0.00 0.00 0.00 64 1018.4
20260507130734 13 46 4.8 9.7 0.00 0.00 0.00 64 1018.4
20260507130231 13 31 8.0 9.7 0.00 0.00 0.00 64 1018.4
20260507125728 13 87 3.2 6.4 0.00 0.00 0.00 66 1018.4
20260507125226 12 18 3.2 3.2 0.00 0.00 0.00 66 1018.4
20260507124400 12 34 6.4 9.7 0.00 0.00 0.00 69 1018.4
20260507124222 12 34 6.4 9.7 0.00 0.00 0.00 69 1018.4
20260507123854 12 93 4.8 6.4 0.00 0.00 0.00 69 1018.4
20260507123719 12 93 4.8 6.4 0.00 0.00 0.00 69 1018.4
20260507123216 12 3 6.4 6.4 0.00 0.00 0.00 69 1018.4
20260507122714 12 16 3.2 4.8 0.00 0.00 0.00 72 1018.4
20260507122212 12 67 3.2 3.2 0.00 0.00 0.00 73 1018.4
20260507121709 12 21 6.4 8.0 0.00 0.00 0.00 73 1018.4
20260507121208 12 10 3.2 3.2 0.00 0.00 0.00 69 1018.4
20260507120705 12 36 1.6 3.2 0.00 0.00 0.00 72 1018.1
20260507120202 12 26 1.6 4.8 0.00 0.00 0.00 71 1018.1
20260507115700 12 52 1.6 3.2 0.00 0.00 0.00 71 1018.1
20260507115157 12 6 1.6 1.6 0.00 0.00 0.00 72 1018.1
20260507114656 12 41 1.6 1.6 0.00 0.00 0.00 73 1018.1
20260507114152 12 14 1.6 3.2 0.00 0.00 0.00 73 1018.1
20260507113650 12 0 1.6 1.6 0.00 0.00 0.00 72 1018.1
20260507113147 12 29 3.2 6.4 0.00 0.00 0.00 73 1018.4
20260507112645 12 337 1.6 3.2 0.00 0.00 0.00 72 1018.4
20260507112143 12 34 1.6 1.6 0.00 0.00 0.00 72 1018.4
20260507110635 12 29 4.8 6.4 0.00 0.00 0.00 73 1018.4
20260507110133 12 14 3.2 4.8 0.00 0.00 0.00 71 1018.4
20260507105630 12 28 6.4 9.7 0.00 0.00 0.00 73 1018.4
20260507104628 12 5 0.0 0.0 0.00 0.00 0.00 73 1018.4
20260507104626 12 5 0.0 0.0 0.00 0.00 0.00 73 1018.4
20260507104124 12 88 1.6 4.8 0.00 0.00 0.00 74 1018.4
20260507103621 12 0 0.0 0.0 0.00 0.00 0.00 75 1018.4
20260507103118 12 59 1.6 3.2 0.00 0.00 0.00 75 1018.4
20260507102616 12 15 6.4 8.0 0.00 0.00 0.00 77 1018.4
20260507102114 12 18 3.2 4.8 0.00 0.00 0.00 75 1018.4
20260507101612 12 338 3.2 4.8 0.00 0.00 0.00 75 1018.4
20260507101109 12 0 3.2 4.8 0.00 0.00 0.00 75 1018.4
20260507100607 12 5 1.6 3.2 0.00 0.00 0.00 75 1018.4
20260507100105 12 23 3.2 4.8 0.00 0.00 0.00 76 1018.4
20260507095602 12 8 9.7 11.3 0.00 0.00 0.00 75 1018.4
20260507095101 12 33 3.2 6.4 0.00 0.00 0.00 75 1018.4
20260507094558 12 7 1.6 1.6 0.00 0.00 0.00 74 1018.1
20260507094055 12 17 3.2 8.0 0.00 0.00 0.00 73 1018.1
20260507093553 12 40 4.8 6.4 0.00 0.00 0.00 74 1018.1
20260507093050 12 359 6.4 8.0 0.00 0.00 0.00 71 1018.1
20260507092548 12 19 3.2 4.8 0.00 0.00 0.00 75 1018.1
20260507092046 12 334 3.2 4.8 0.00 0.00 0.00 73 1018.1
20260507091544 12 44 3.2 3.2 0.00 0.00 0.00 71 1018.1
20260507091042 12 42 6.4 8.0 0.00 0.00 0.00 70 1017.8
20260507090539 12 36 4.8 9.7 0.00 0.00 0.00 71 1017.8
20260507090037 12 3 6.4 8.0 0.00 0.00 0.00 70 1017.8
20260507085534 12 2 3.2 4.8 0.00 0.00 0.00 69 1017.8
20260507085031 12 32 3.2 3.2 0.00 0.00 0.00 72 1017.8
20260507084529 12 21 6.4 8.0 0.00 0.00 0.00 73 1017.8
20260507084027 12 28 6.4 9.7 0.00 0.00 0.00 72 1017.8
20260507083524 12 70 4.8 4.8 0.00 0.00 0.00 71 1017.8
20260507082519 12 50 3.2 4.8 0.00 0.00 0.00 73 1017.8
20260507082017 12 23 9.7 11.3 0.00 0.00 0.00 71 1017.8
20260507081514 12 38 3.2 4.8 0.00 0.00 0.00 70 1017.8
20260507081011 12 3 1.6 3.2 0.00 0.00 0.00 71 1017.8
20260507080509 12 73 1.6 3.2 0.00 0.00 0.00 73 1017.8
20260507080007 12 83 3.2 6.4 0.00 0.00 0.00 71 1017.8
20260507075504 12 56 6.4 11.3 0.00 0.00 0.00 72 1017.8
20260507074500 12 34 3.2 6.4 0.00 0.00 0.00 71 1017.8
20260507073957 12 97 6.4 6.4 0.00 0.00 0.00 72 1017.8
20260507073454 12 90 3.2 11.3 0.00 0.00 0.00 69 1017.8
20260507072952 12 14 3.2 8.0 0.00 0.00 0.00 73 1017.8
20260507072449 12 107 3.2 4.8 0.00 0.00 0.00 74 1017.8
20260507071947 12 80 6.4 6.4 0.00 0.00 0.00 73 1017.8
20260507071445 12 71 3.2 6.4 0.00 0.00 0.00 74 1017.8
20260507070942 12 77 4.8 9.7 0.00 0.00 0.00 73 1017.8
20260507070440 12 73 3.2 8.0 0.00 0.00 0.00 74 1017.8
20260507065938 12 355 3.2 9.7 0.00 0.00 0.00 73 1017.8
20260507065435 12 23 4.8 8.0 0.00 0.00 0.00 71 1017.8
20260507064932 12 57 1.6 1.6 0.00 0.00 0.00 73 1017.4
20260507064430 12 353 9.7 9.7 0.00 0.00 0.00 73 1017.4
20260507063928 12 42 6.4 6.4 0.00 0.00 0.00 77 1017.4
20260507063425 12 59 1.6 1.6 0.00 0.00 0.00 81 1017.4
20260507062922 11 74 3.2 4.8 0.00 0.00 0.00 84 1017.4
20260507062420 11 87 1.6 3.2 0.00 0.00 0.00 86 1017.4
20260507061918 10 33 3.2 3.2 0.00 0.00 0.00 89 1017.4
20260507061416 10 78 1.6 1.6 0.00 0.00 0.00 90 1017.4
20260507060913 8 57 1.6 1.6 0.00 0.00 0.00 92 1017.4
20260507060411 8 14 1.6 1.6 0.00 0.00 0.00 94 1017.4
20260507055908 8 15 0.0 0.0 0.00 0.00 0.00 94 1017.4
20260507055406 7 24 0.0 0.0 0.00 0.00 0.00 94 1017.4
20260507054903 7 38 0.0 0.0 0.00 0.00 0.00 94 1017.4
20260507054401 7 64 1.6 1.6 0.00 0.00 0.00 95 1017.1
20260507053356 7 19 0.0 0.0 0.00 0.00 0.00 96 1017.1
20260507052352 7 11 0.0 0.0 0.00 0.00 0.00 96 1017.1
20260507051849 7 3 0.0 0.0 0.00 0.00 0.00 96 1017.1
20260507051346 7 16 0.0 0.0 0.00 0.00 0.00 96 1017.1
20260507050844 7 25 0.0 0.0 0.00 0.00 0.00 96 1017.1
20260507050342 7 28 0.0 0.0 0.00 0.00 0.00 96 1017.1
20260507045838 7 12 0.0 0.0 0.00 0.00 0.00 96 1017.1
20260507045336 6 27 0.0 0.0 0.00 0.00 0.00 96 1017.1
20260507044834 6 55 1.6 1.6 0.00 0.00 0.00 96 1016.7
20260507044332 6 9 0.0 0.0 0.00 0.00 0.00 97 1016.7
20260507043326 5 28 0.0 0.0 0.00 0.00 0.00 96 1016.7
20260507042825 6 61 0.0 0.0 0.00 0.00 0.00 96 1016.7
20260507042322 5 26 0.0 0.0 0.00 0.00 0.00 96 1016.7
20260507041819 6 30 0.0 0.0 0.00 0.00 0.00 96 1016.7
20260507041317 6 54 1.6 1.6 0.00 0.00 0.00 96 1016.7
20260507040815 7 10 0.0 0.0 0.00 0.00 0.00 96 1016.7
20260507040312 7 342 1.6 1.6 0.00 0.00 0.00 97 1016.7
20260507035809 7 329 1.6 1.6 0.00 0.00 0.00 97 1016.7
20260507035307 6 0 0.0 0.0 0.00 0.00 0.00 96 1016.7
20260507034804 6 23 0.0 0.0 0.00 0.00 0.00 96 1016.7
20260507034301 6 21 0.0 0.0 0.00 0.00 0.00 96 1016.7
20260507033257 6 4 0.0 0.0 0.00 0.00 0.00 96 1016.7
20260507032754 6 353 1.6 1.6 0.00 0.00 0.00 96 1016.7
20260507031750 6 276 0.0 1.6 0.00 0.00 0.00 95 1016.7
20260507031247 6 320 1.6 1.6 0.00 0.00 0.00 95 1016.7
20260507030745 6 345 1.6 1.6 0.00 0.00 0.00 95 1016.7
20260507025740 7 0 0.0 1.6 0.00 0.00 0.00 94 1016.7
20260507025238 7 0 0.0 0.0 0.00 0.00 0.00 94 1016.7
20260507024735 7 340 1.6 1.6 0.00 0.00 0.00 94 1016.7
20260507024233 7 330 1.6 1.6 0.00 0.00 0.00 94 1016.7
20260507023731 7 287 1.6 1.6 0.00 0.00 0.00 94 1016.7
20260507023229 7 300 1.6 1.6 0.00 0.00 0.00 93 1016.7
20260507022725 7 320 1.6 1.6 0.00 0.00 0.00 93 1016.7
20260507022224 7 268 1.6 1.6 0.00 0.00 0.00 93 1016.7
20260507021721 7 317 0.0 1.6 0.00 0.00 0.00 93 1016.7
20260507021219 7 334 0.0 0.0 0.00 0.00 0.00 93 1016.7
20260507020716 7 333 0.0 1.6 0.00 0.00 0.00 93 1016.7
20260507020213 7 345 1.6 1.6 0.00 0.00 0.00 93 1016.4
20260507015711 7 0 1.6 1.6 0.00 0.00 0.00 93 1016.4
20260507014706 7 297 1.6 1.6 0.00 0.00 0.00 93 1016.4
20260507014203 7 282 1.6 1.6 0.00 0.00 0.00 93 1016.4
20260507013701 7 0 1.6 1.6 0.00 0.00 0.00 93 1016.4
20260507013159 7 16 1.6 1.6 0.00 0.00 0.00 93 1016.4
20260507012656 7 354 0.0 0.0 0.00 0.00 0.00 93 1016.4
20260507012154 7 349 0.0 0.0 0.00 0.00 0.00 93 1016.4
20260507011651 7 344 0.0 1.6 0.00 0.00 0.00 92 1016.4
20260507011148 7 354 1.6 1.6 0.00 0.00 0.00 93 1016.4
20260507010646 7 351 0.0 1.6 0.00 0.00 0.00 92 1016.4
20260507010143 7 319 1.6 1.6 0.00 0.00 0.00 92 1016.4
20260507005641 7 325 1.6 1.6 0.00 0.00 0.00 92 1016.4
20260507005138 7 341 0.0 0.0 0.00 0.00 0.00 91 1016.4
20260507004636 7 6 0.0 0.0 0.00 0.00 0.00 90 1016.4
20260507004134 7 28 0.0 0.0 0.00 0.00 0.00 90 1016.4
20260507003631 7 4 1.6 1.6 0.00 0.00 0.00 91 1016.4
20260507003129 7 345 1.6 1.6 0.00 0.00 0.00 91 1016.4
20260507002626 7 315 1.6 1.6 0.00 0.00 0.00 91 1016.4
20260507002124 7 290 1.6 1.6 0.00 0.00 0.00 91 1016.4
20260507001622 7 315 1.6 1.6 0.00 0.00 0.00 91 1016.4
20260507001120 7 284 1.6 1.6 0.00 0.00 0.00 90 1016.4
20260507000618 7 317 1.6 1.6 0.00 0.00 0.00 90 1016.4
20260507000116 7 344 1.6 1.6 0.00 0.00 0.00 90 1016.4
20260506235613 7 313 1.6 1.6 0.00 0.00 0.00 89 1016.4
20260506235110 7 326 1.6 1.6 0.00 0.00 0.00 88 1016.4
20260506234608 7 338 1.6 1.6 0.00 0.00 0.00 88 1016.4
20260506234106 7 348 0.0 1.6 0.00 0.00 0.00 88 1016.4
20260506233604 7 8 1.6 3.2 0.00 0.00 0.00 88 1016.4
20260506233101 7 358 3.2 3.2 0.00 0.00 0.00 88 1016.4
20260506232559 7 5 1.6 1.6 0.00 0.00 0.00 88 1016.4
20260506232057 7 336 1.6 1.6 0.00 0.00 0.00 88 1016.4
20260506231555 8 323 1.6 1.6 0.00 0.00 0.00 88 1016.4
20260506231052 8 22 3.2 3.2 0.00 0.00 0.00 88 1016.4
20260506230550 8 351 1.6 1.6 0.00 0.00 0.00 88 1016.4
20260506230048 8 357 1.6 3.2 0.00 0.00 0.00 87 1016.4
20260506225546 8 24 1.6 1.6 0.00 0.00 0.00 87 1016.4
20260506225043 8 324 1.6 1.6 0.00 0.00 0.00 87 1016.4
20260506224037 8 64 3.2 4.8 0.00 0.00 0.00 86 1016.1
20260506223534 8 344 4.8 6.4 0.00 0.00 0.00 86 1016.1
20260506223031 8 354 3.2 3.2 0.00 0.00 0.00 86 1016.1
20260506222529 8 33 1.6 3.2 0.00 0.00 0.00 85 1016.1
20260506222027 10 32 1.6 3.2 0.00 0.00 0.00 84 1016.1
20260506221525 8 28 1.6 1.6 0.00 0.00 0.00 85 1016.1
20260506221022 10 47 3.2 6.4 0.00 0.00 0.00 85 1016.1
20260506220520 10 27 3.2 4.8 0.00 0.00 0.00 85 1016.1
20260506220017 10 39 3.2 4.8 0.00 0.00 0.00 85 1016.1
20260506215515 10 8 3.2 3.2 0.00 0.00 0.00 85 1016.1
20260506215013 10 50 0.0 1.6 0.00 0.00 0.00 85 1016.1